Weather History for Prestonsburg, KY

Change the Weather History Date:

Wednesday, November 21, 2012

  Actual Average (KJKL) Record (KJKL)
Temperature  
Mean Temperature 50 °F 46 °F  
Max Temperature 61 °F 55 °F 74 °F (1994)
Min Temperature 39 °F 38 °F 19 °F (2000)
Degree Days  
Heating Degree Days 15 19  
Month to date heating degree days 317  
Since 1 July heating degree days 614  
Cooling Degree Days 0 0  
Month to date cooling degree days 0  
Year to date cooling degree days 1150  
Moisture  
Dew Point 33 °F    
Average Humidity 55    
Maximum Humidity 83    
Minimum Humidity 33    
Precipitation  
Precipitation 0.00 in 0.15 in 0.78 in (1997)
Month to date precipitation 2.71  
Year to date precipitation 42.91  
Snow  
Snow - 0.00 in - ()
Month to date snowfall 0.2  
Since 1 July snowfall 0.3  
Since 1 September snowfall 0.3  
Snow Depth -    
Sea Level Pressure  
Sea Level Pressure 30.18 in    
Wind  
Wind Speed 1 mph ()    
Max Wind Speed 6 mph    
Max Gust Speed -    
Visibility 10.0 miles    
Events      
T = Trace of Precipitation, MM = Missing Value Source: Averaged Metar Reports

Daily Weather History Graph

Daily Weather History Graph

Search for Another Location

Airport:

Trip Planner

Search our weather history database for the weather conditions in past years. The results will help you decide how hot, cold, wet, or windy it might be!

Date:

Astronomy

Nov. 21, 2012 Rise Set
Actual Time 7:17 AM EST 5:15 PM EST
Civil Twilight 6:49 AM EST 5:43 PM EST
Nautical Twilight 6:17 AM EST 6:15 PM EST
Astronomical Twilight 5:45 AM EST 6:46 PM EST
Moon 1:25 PM EST (11/21) 12:42 AM EST (11/21)
Length of Visible Light 10h 54m
Length of Day
9h 57m
First Quarter, 61% of the Moon is Illuminated
Nov 21
First Quarter
Nov 28
Full
Dec 6
Last Quarter
Dec 13
New
Dec 20
First Quarter

Hourly Weather History & Observations

Time (EST) Temp. Windchill Dew Point Humidity Pressure Visibility Wind Dir Wind Speed Gust Speed Precip Events Conditions
12:15 AM 49.8 °F - 33.3 °F 53% 30.13 in 10.0 mi Calm Calm - N/A   Overcast
12:35 AM 49.1 °F - 33.1 °F 54% 30.13 in 10.0 mi Calm Calm - N/A   Mostly Cloudy
12:55 AM 49.1 °F - 32.9 °F 54% 30.13 in 10.0 mi Calm Calm - N/A   Mostly Cloudy
1:15 AM 46.8 °F - 35.1 °F 64% 30.12 in 10.0 mi Calm Calm - N/A   Scattered Clouds
1:35 AM 47.8 °F - 33.8 °F 58% 30.11 in 10.0 mi Calm Calm - N/A   Clear
1:55 AM 48.2 °F - 32.9 °F 55% 30.11 in 10.0 mi Calm Calm - N/A   Clear
2:15 AM 44.8 °F 43.3 °F 34.7 °F 68% 30.11 in 10.0 mi East 3.5 mph - N/A   Clear
2:35 AM 44.6 °F 43.1 °F 33.6 °F 65% 30.11 in 10.0 mi ENE 3.5 mph - N/A   Clear
2:55 AM 41.9 °F - 33.8 °F 73% 30.11 in 10.0 mi Calm Calm - N/A   Clear
3:15 AM 43.7 °F - 34.5 °F 70% 30.12 in 10.0 mi Calm Calm - N/A   Clear
3:35 AM 42.8 °F - 34.7 °F 73% 30.12 in 10.0 mi Calm Calm - N/A   Clear
3:55 AM 43.0 °F - 34.2 °F 71% 30.12 in 10.0 mi Calm Calm - N/A   Clear
4:15 AM 42.1 °F - 33.4 °F 71% 30.12 in 10.0 mi Calm Calm - N/A   Clear
4:35 AM 42.3 °F - 34.7 °F 75% 30.12 in 10.0 mi Calm Calm - N/A   Clear
4:55 AM 41.7 °F - 33.8 °F 73% 30.13 in 10.0 mi Calm Calm - N/A   Clear
5:15 AM 40.8 °F - 34.9 °F 79% 30.14 in 10.0 mi Calm Calm - N/A   Clear
5:35 AM 40.3 °F - 33.6 °F 77% 30.15 in 10.0 mi Calm Calm - N/A   Scattered Clouds
5:55 AM 40.5 °F - 34.7 °F 80% 30.15 in 10.0 mi Calm Calm - N/A   Clear
6:15 AM 41.5 °F - 34.2 °F 75% 30.16 in 10.0 mi Calm Calm - N/A   Clear
6:35 AM 40.1 °F - 33.8 °F 78% 30.17 in 10.0 mi Calm Calm - N/A   Clear
6:55 AM 41.0 °F - 33.6 °F 75% 30.17 in 10.0 mi Calm Calm - N/A   Clear
7:15 AM 40.1 °F - 33.3 °F 77% 30.18 in 10.0 mi Calm Calm - N/A   Clear
7:35 AM 39.0 °F - 33.8 °F 82% 30.18 in 10.0 mi Calm Calm - N/A   Clear
7:55 AM 40.5 °F - 34.2 °F 78% 30.19 in 10.0 mi Calm Calm - N/A   Clear
8:15 AM 39.6 °F - 34.9 °F 83% 30.19 in 10.0 mi Calm Calm - N/A   Clear
8:35 AM 41.2 °F - 35.2 °F 79% 30.20 in 10.0 mi Calm Calm - N/A   Clear
8:55 AM 43.5 °F - 36.3 °F 76% 30.21 in 10.0 mi Calm Calm - N/A   Clear
9:15 AM 46.6 °F - 38.1 °F 72% 30.21 in 10.0 mi Calm Calm - N/A   Clear
9:35 AM 48.6 °F - 36.9 °F 64% 30.21 in 10.0 mi Calm Calm - N/A   Scattered Clouds
9:55 AM 50.5 °F - 36.0 °F 57% 30.21 in 10.0 mi Calm Calm - N/A   Scattered Clouds
10:15 AM 51.6 °F - 37.0 °F 58% 30.21 in 10.0 mi Calm Calm - N/A   Clear
10:35 AM 53.8 °F - 34.9 °F 49% 30.22 in 10.0 mi Calm Calm - N/A   Clear
10:55 AM 55.0 °F - 36.0 °F 49% 30.22 in 10.0 mi Calm Calm - N/A   Clear
11:15 AM 57.0 °F - 34.7 °F 43% 30.22 in 10.0 mi Calm Calm - N/A   Clear
11:35 AM 58.3 °F - 34.0 °F 40% 30.22 in 10.0 mi Calm Calm - N/A   Clear
11:55 AM 58.3 °F - 33.6 °F 39% 30.21 in 10.0 mi ENE 5.8 mph - N/A   Clear
12:15 PM 59.7 °F - 32.9 °F 36% 30.20 in 10.0 mi ESE 3.5 mph - N/A   Clear
12:35 PM 59.2 °F - 32.9 °F 37% 30.20 in 10.0 mi Calm Calm - N/A   Clear
12:55 PM 60.4 °F - 31.8 °F 34% 30.20 in 10.0 mi Calm Calm - N/A   Clear
1:15 PM 60.8 °F - 32.0 °F 34% 30.19 in 10.0 mi North 3.5 mph - N/A   Clear
1:35 PM 61.2 °F - 32.0 °F 33% 30.19 in 10.0 mi NE 3.5 mph - N/A   Clear
1:55 PM 61.2 °F - 32.4 °F 34% 30.19 in 10.0 mi Calm Calm - N/A   Clear
2:15 PM 61.0 °F - 32.0 °F 34% 30.18 in 10.0 mi NW 3.5 mph - N/A   Clear
2:35 PM 61.5 °F - 32.9 °F 34% 30.18 in 10.0 mi Calm Calm - N/A   Clear
3:15 PM 61.5 °F - 32.9 °F 34% 30.17 in 10.0 mi East 3.5 mph - N/A   Clear
3:35 PM 61.2 °F - 33.3 °F 35% 30.18 in 10.0 mi Calm Calm - N/A   Clear
3:55 PM 61.0 °F - 32.7 °F 35% 30.18 in 10.0 mi Calm Calm - N/A   Clear
4:15 PM 60.6 °F - 33.1 °F 36% 30.18 in 10.0 mi North 3.5 mph - N/A   Clear
4:35 PM 60.1 °F - 33.3 °F 36% 30.18 in 10.0 mi Calm Calm - N/A   Clear
4:55 PM 59.4 °F - 32.7 °F 37% 30.18 in 10.0 mi NNW 3.5 mph - N/A   Clear
5:15 PM 58.1 °F - 32.4 °F 38% 30.19 in 10.0 mi North 3.5 mph - N/A   Clear
5:35 PM 56.5 °F - 32.9 °F 41% 30.19 in 10.0 mi Calm Calm - N/A   Clear
5:55 PM 55.9 °F - 32.4 °F 41% 30.19 in 10.0 mi Calm Calm - N/A   Clear
6:15 PM 56.1 °F - 32.2 °F 40% 30.19 in 10.0 mi Calm Calm - N/A   Clear
6:35 PM 54.9 °F - 32.2 °F 42% 30.20 in 10.0 mi NNE 3.5 mph - N/A   Clear
6:55 PM 54.5 °F - 32.2 °F 43% 30.21 in 10.0 mi NNE 3.5 mph - N/A   Clear
7:15 PM 54.0 °F - 32.0 °F 43% 30.21 in 10.0 mi NE 3.5 mph - N/A   Clear
7:35 PM 51.6 °F - 32.0 °F 47% 30.21 in 10.0 mi NNE 3.5 mph - N/A   Clear
7:55 PM 51.8 °F - 32.0 °F 47% 30.21 in 10.0 mi NE 3.5 mph - N/A   Clear
8:15 PM 51.4 °F - 32.0 °F 47% 30.22 in 10.0 mi NE 3.5 mph - N/A   Clear
8:35 PM 50.4 °F - 32.0 °F 49% 30.22 in 10.0 mi ENE 4.6 mph - N/A   Clear
8:55 PM 50.9 °F - 32.2 °F 49% 30.21 in 10.0 mi East 3.5 mph - N/A   Clear
9:15 PM 50.0 °F - 32.0 °F 50% 30.22 in 10.0 mi ENE 3.5 mph - N/A   Clear
9:35 PM 51.1 °F - 32.0 °F 48% 30.21 in 10.0 mi Calm Calm - N/A   Clear
9:55 PM 50.0 °F - 32.0 °F 50% 30.21 in 10.0 mi Calm Calm - N/A   Clear
10:15 PM 49.6 °F - 32.0 °F 51% 30.21 in 10.0 mi Calm Calm - N/A   Clear
10:35 PM 48.4 °F - 32.0 °F 53% 30.21 in 10.0 mi Calm Calm - N/A   Clear
10:55 PM 48.0 °F - 32.0 °F 54% 30.21 in 10.0 mi Calm Calm - N/A   Clear
11:15 PM 46.2 °F - 33.8 °F 62% 30.21 in 10.0 mi Calm Calm - N/A   Clear
11:35 PM 47.7 °F - 32.9 °F 57% 30.21 in 10.0 mi Calm Calm - N/A   Clear
11:55 PM 46.6 °F - 32.0 °F 57% 30.21 in 10.0 mi Calm Calm - N/A   Clear